Location: Ecl�pens
(46.6517°N, 6.5275°E)
Time: 23:11:13
(UTC+00:00)

Daily predictions for brighter satellites

Satellite Brightness Start Highest point End
(mag) Time Altitude Azimuth Time Altitude Azimuth Time Altitude Azimuth
H-2A R/B 4.1 19:53:53 10° SSW 19:58:13 27° W 20:02:43 10° NW
STARLINK-1101 4.4 19:55:21 10° WNW 19:59:18 43° SW 20:03:13 10° SSE
Cosmos 1943 Rocket 2.5 19:56:11 10° S 20:01:27 46° ESE 20:06:47 10° NE
STARLINK-1212 3.8 19:58:30 10° NW 20:01:33 44° NNE 20:04:35 10° E
STARLINK-1105 3.8 19:59:08 10° NW 20:02:13 45° NNE 20:05:17 10° E
STARLINK-1247 3.8 20:00:14 10° NW 20:03:19 46° NNE 20:06:26 10° E
STARLINK-1227 3.8 20:00:50 10° NW 20:03:56 46° NNE 20:07:02 10° E
STARLINK-1226 3.7 20:02:00 10° NW 20:05:05 47° NNE 20:08:10 10° E
STARLINK-1215 3.7 20:03:02 10° NW 20:06:09 47° NNE 20:09:16 10° E
NOSS 2-2 (C) 3.3 20:04:10 10° SW 20:07:43 80° NW 20:11:43 10° NE
STARLINK-1217 3.7 20:05:18 10° NW 20:08:25 49° NNE 20:11:33 10° E
STARLINK-1229 3.6 20:06:24 10° NW 20:09:32 50° NNE 20:12:39 10° E
STARLINK-1270 3.6 20:07:29 10° NW 20:10:37 50° NNE 20:13:44 10° E
STARLINK-1189 3.6 20:09:51 10° NW 20:13:01 52° NNE 20:16:11 10° ESE
ATLAS 2AS CENTAUR R/B 3.6 20:06:51 10° S 20:13:55 37° ESE 20:21:02 10° NE
STARLINK-1188 3.5 20:11:04 10° NW 20:14:14 53° NNE 20:17:23 10° ESE
NOSS 3-2 (A) 4.2 20:06:46 10° NW 20:14:17 88° NE 20:22:46 10° SE
SL-4 R/B 2.4 20:09:40 10° SW 20:14:17 66° SSE 20:19:06 10° ENE
STARLINK-1191 3.5 20:13:40 10° NW 20:16:49 55° NNE 20:19:58 10° ESE
STARLINK-1221 3.4 20:14:54 10° NW 20:18:04 56° NNE 20:21:14 10° ESE
STARLINK-1222 3.4 20:16:05 10° NW 20:19:15 57° NNE 20:22:25 10° ESE
STARLINK-1214 3.4 20:17:20 10° NW 20:20:31 58° NNE 20:23:42 10° ESE
Landsat 7 4.1 20:16:08 10° SSE 20:20:46 55° ENE 20:25:27 10° N
Cosmos 1242 Rocket 4.2 20:18:27 10° SE 20:20:56 18° E 20:23:32 10° NE
STARLINK-29 3.0 20:20:19 10° SW 20:23:27 52° SE 20:26:36 10° ENE
Cosmos 1437 Rocket 4.1 20:20:05 10° SW 20:23:42 41° WNW 20:27:24 10° N
ERS-1 Rocket 3.8 20:19:11 10° SE 20:23:47 38° ENE 20:28:26 10° N
Okean 1 Rocket 3.2 20:21:09 10° NNW 20:25:36 78° W 20:29:59 10° S
Cosmos 1455 Rocket 4.0 20:22:04 10° N 20:25:58 32° ENE 20:29:27 12° SE
USA 238 DEB 4.0 20:22:07 10° NW 20:29:21 79° SW 20:36:27 12° SSE
USA 238 4.0 20:22:13 10° NW 20:29:27 80° SW 20:36:34 12° SSE
Cosmos 2082 Rocket 4.3 20:26:17 10° NW 20:30:32 22° W 20:34:44 10° SSW
STARLINK-1209 3.2 20:27:30 10° WNW 20:31:02 88° NNE 20:34:08 13° ESE
Cosmos 968 Rocket 4.0 20:28:42 10° NNW 20:33:39 45° ENE 20:37:57 13° SE
IGS 5A 3.5 20:29:40 11° SSE 20:33:41 71° ENE 20:37:51 10° N
Cosmos 2026 Rocket 4.5 20:27:48 10° SSE 20:33:43 44° E 20:39:43 10° NNE
ATLAS CENTAUR R/B 2.3 20:30:14 10° S 20:34:01 28° ESE 20:37:38 10° ENE
MetOp-B 4.3 20:28:59 10° SSE 20:34:20 80° WSW 20:39:44 10° NNW
Okean 2 3.6 20:31:14 10° S 20:35:15 52° E 20:39:20 10° NNE
Cosmos 2369 Rocket 2.2 20:31:10 10° SSW 20:36:45 64° ESE 20:42:21 10° NNE
CARTOSAT-1 4.2 20:34:06 13° SE 20:37:38 42° ENE 20:41:44 10° N
STARLINK-1320 4.1 20:36:48 10° S 20:39:15 21° SE 20:41:44 10° E
Cosmos 1867 4.1 20:34:02 10° NNW 20:39:25 54° NE 20:44:11 13° ESE
STARLINK-1322 4.1 20:37:08 10° S 20:39:36 22° SE 20:42:05 10° E
STARLINK-1324 4.1 20:37:26 10° S 20:39:54 22° SE 20:42:24 10° E
STARLINK-1294 4.1 20:37:46 10° S 20:40:13 22° SE 20:42:42 10° E
STARLINK-1261 4.1 20:38:07 10° S 20:40:36 22° SE 20:43:06 10° E
STARLINK-1325 4.1 20:38:27 10° S 20:40:57 22° SE 20:43:27 10° E
STARLINK-1187 3.0 20:37:54 10° WNW 20:41:14 89° NNE 20:43:50 16° ESE
STARLINK-1333 4.0 20:38:49 10° S 20:41:19 22° SE 20:43:50 10° E
STARLINK-1334 4.0 20:39:06 10° S 20:41:36 22° SE 20:44:07 10° E
STARLINK-1326 4.0 20:39:24 10° SSW 20:41:56 23° SE 20:44:27 10° E
STARLINK-1323 4.0 20:39:46 10° SSW 20:42:18 23° SE 20:44:50 10° E
STARLINK-1349 4.0 20:40:03 10° SSW 20:42:35 23° SE 20:45:08 10° E
Cosmos 1766 3.3 20:38:39 10° N 20:42:41 90° WSW 20:46:21 12° S
STARLINK-1336 4.0 20:40:23 10° SSW 20:42:55 23° SE 20:45:28 10° E
STARLINK-1331 4.0 20:40:45 10° SSW 20:43:18 23° SE 20:45:52 10° E
STARLINK-1344 4.0 20:41:03 10° SSW 20:43:36 23° SE 20:46:10 10° E
STARLINK-1343 4.0 20:41:24 10° SSW 20:43:58 23° SE 20:46:32 10° E
STARLINK-1346 4.0 20:41:42 10° SSW 20:44:16 24° SE 20:46:52 10° E
STARLINK-1328 4.0 20:42:06 10° SSW 20:44:41 24° SE 20:47:16 10° E
STARLINK-1354 3.9 20:42:24 10° SSW 20:44:58 24° SE 20:47:34 10° E
STARLINK-1234 3.2 20:41:32 10° WNW 20:45:08 78° SSW 20:47:47 17° SE
STARLINK-1347 3.9 20:42:41 10° SSW 20:45:16 24° SE 20:47:51 10° E
STARLINK-1357 3.9 20:43:05 10° SSW 20:45:41 24° SE 20:48:17 10° E
STARLINK-1335 3.9 20:43:22 10° SSW 20:45:58 24° SE 20:48:35 10° E
STARLINK-1327 3.9 20:43:43 10° SSW 20:46:19 25° SE 20:48:56 10° E
STARLINK-1340 3.9 20:44:01 10° SSW 20:46:37 25° SE 20:49:15 10° E
STARLINK-1356 3.9 20:44:23 10° SSW 20:47:00 25° SE 20:49:38 10° E
STARLINK-1345 3.9 20:44:41 10° SSW 20:47:19 25° SE 20:49:57 10° E
STARLINK-1355 3.9 20:45:01 10° SSW 20:47:40 25° SE 20:50:18 10° E
STARLINK-1321 3.9 20:45:22 10° SSW 20:48:00 25° SE 20:50:39 10° E
STARLINK-1358 3.9 20:45:44 10° SSW 20:48:23 25° SE 20:51:02 10° E
STARLINK-1206 4.5 20:44:36 10° WNW 20:48:38 47° NNE 20:52:39 10° E
STARLINK-1332 3.8 20:46:01 10° SSW 20:48:40 26° SE 20:51:20 10° E
STARLINK-1348 3.8 20:46:21 10° SSW 20:49:00 26° SE 20:51:40 10° E
STARLINK-1330 3.8 20:46:41 10° SSW 20:49:20 26° SE 20:52:01 10° E
STARLINK-1363 3.8 20:47:00 10° SSW 20:49:39 26° SE 20:52:20 10° E
Nadezhda 4 Rocket 4.3 20:43:45 10° SSW 20:49:51 70° W 20:55:59 10° N
STARLINK-1337 3.8 20:47:22 10° SSW 20:50:02 26° SE 20:52:43 10° E
STARLINK-1338 4.5 20:46:56 10° SSW 20:50:15 25° SE 20:53:34 10° E
STARLINK-1342 3.8 20:47:41 10° SSW 20:50:21 26° SE 20:53:03 10° E
STARLINK-1228 3.3 20:46:48 10° WNW 20:50:27 72° SSW 20:53:01 19° SE
STARLINK-1364 3.8 20:48:01 10° SSW 20:50:42 27° SE 20:53:23 10° E
STARLINK-1376 3.8 20:48:20 10° SSW 20:51:01 27° SE 20:53:44 10° ENE
STARLINK-1360 3.8 20:48:40 10° SSW 20:51:22 27° SE 20:54:05 10° ENE
STARLINK-1361 3.8 20:49:01 10° SSW 20:51:43 27° SE 20:54:25 10° ENE
STARLINK-1367 3.8 20:49:17 10° SSW 20:52:00 27° SE 20:54:43 10° ENE
STARLINK-1366 3.7 20:49:38 10° SSW 20:52:21 28° SE 20:55:05 10° ENE
STARLINK-1205 4.4 20:49:35 10° WNW 20:53:38 49° NNE 20:57:40 10° E
Resurs 01 Rocket 3.3 20:49:51 10° SSW 20:53:45 29° W 20:57:40 10° NW
USA 245 3.0 20:52:38 15° S 20:54:33 44° WSW 20:56:49 10° NNW
STARLINK-1371 4.3 20:55:10 10° SSW 20:58:37 29° SE 21:02:06 10° ENE
STARLINK-1218 4.3 20:54:34 10° WNW 20:58:38 51° NNE 21:02:42 10° E
STARLINK-52 2.9 20:55:34 10° WSW 20:58:46 90° NNE 21:02:00 10° ENE
SPOT 5 3.2 20:57:53 16° SSE 21:02:06 72° ENE 21:07:27 10° N
Spot 2 Rocket 4.1 20:57:37 10° S 21:02:33 54° W 21:07:31 10° NNW
STARLINK-1341 4.2 20:59:20 10° SSW 21:02:54 32° SE 21:06:28 10° ENE
Cosmos 1378 4.3 20:59:42 10° SSW 21:03:14 42° WNW 21:06:47 10° N
Cosmos 1544 Rocket 3.8 20:59:18 10° N 21:03:36 56° ENE 21:06:25 20° SSE
STARLINK-1254 4.2 20:59:33 10° WNW 21:03:39 54° NNE 21:07:29 11° E
CENTAUR R/B 3.3 20:55:57 10° NW 21:04:02 83° SW 21:11:11 17° SSE
BREEZE-M DEB 2.6 21:02:45 10° WSW 21:05:12 80° SSE 21:11:12 10° ENE
Terra 2.1 21:02:43 19° SE 21:06:01 55° ENE 21:10:42 10° N
STARLINK-1374 4.1 21:03:31 10° SSW 21:07:07 34° SE 21:10:45 10° ENE
STARLINK-1231 4.1 21:04:32 10° WNW 21:08:38 57° NNE 21:12:16 13° E
STARLINK-1339 4.0 21:07:43 10° SSW 21:11:24 36° SE 21:15:06 10° ENE
ATLAS 3B R/B 3.0 21:05:43 10° NW 21:12:27 62° NE 21:18:06 16° SE
Cosmos 1726 3.6 21:10:02 10° NNE 21:13:07 24° ENE 21:14:42 18° ESE
STARLINK-1232 4.1 21:09:32 10° WNW 21:13:39 60° NNE 21:17:04 14° ESE
STARLINK-1377 3.9 21:11:58 10° SSW 21:15:42 39° SE 21:19:27 10° ENE
Cosmos 1503 Rocket 4.1 21:12:44 10° NNW 21:18:06 77° ENE 21:21:37 22° SSE
STARLINK-1208 4.0 21:14:31 10° WNW 21:18:38 63° NNE 21:21:50 16° ESE
STARLINK-1444 4.2 21:17:01 10° W 21:18:55 28° NNW 21:20:51 10° NE
APEX 4.3 21:12:57 10° SSW 21:19:15 77° WNW 21:24:21 10° NNE
STARLINK-1452 4.2 21:17:40 10° W 21:19:33 28° NNW 21:21:27 10° NE
STARLINK-1353 3.8 21:16:12 10° SSW 21:19:58 42° SE 21:23:46 10° ENE
STARLINK-1392 4.2 21:18:37 10° W 21:20:26 27° NNW 21:22:17 10° NE
STARLINK-1399 4.2 21:18:38 10° W 21:20:28 27° NNW 21:22:19 10° NE
STARLINK-1393 4.2 21:18:40 10° W 21:20:29 27° NNW 21:22:21 10° NE
STARLINK-1394 4.2 21:18:41 10° W 21:20:31 27° NNW 21:22:22 10° NE
STARLINK-1397 4.2 21:18:44 10° W 21:20:33 27° NNW 21:22:26 10° NE
STARLINK-1395 4.2 21:18:46 10° W 21:20:33 26° NNW 21:22:23 10° NE
STARLINK-1396 4.2 21:18:45 10° W 21:20:34 27° NNW 21:22:26 10° NE
STARLINK-1414 4.2 21:18:46 10° W 21:20:34 26° NNW 21:22:25 10° NE
STARLINK-1408 4.2 21:18:49 10° W 21:20:38 26° NNW 21:22:27 10° NE
STARLINK-1404 4.2 21:18:49 10° W 21:20:39 27° NNW 21:22:30 10° NE
STARLINK-1416 4.2 21:18:50 10° W 21:20:39 26° NNW 21:22:30 10° NE
STARLINK-1415 4.2 21:18:50 10° W 21:20:40 27° NNW 21:22:32 10° NE
STARLINK-1450 4.2 21:18:51 10° W 21:20:41 27° NNW 21:22:33 10° NE
STARLINK-1406 4.2 21:18:55 10° W 21:20:43 26° NNW 21:22:33 10° NE
STARLINK-1401 4.2 21:18:53 10° W 21:20:43 27° NNW 21:22:35 10° NE
STARLINK-1417 4.2 21:18:56 10° W 21:20:47 27° NNW 21:22:39 10° NE
STARLINK-1402 4.2 21:18:58 10° W 21:20:48 27° NNW 21:22:40 10° NE
STARLINK-1413 4.2 21:18:58 10° W 21:20:48 27° NNW 21:22:40 10° NE
STARLINK-1419 4.2 21:18:59 10° W 21:20:48 27° NNW 21:22:39 10° NE
STARLINK-1422 4.2 21:19:04 10° W 21:20:54 27° NNW 21:22:45 10° NE
STARLINK-1453 4.2 21:19:04 10° W 21:20:54 27° NNW 21:22:47 10° NE
STARLINK-1398 4.2 21:19:04 10° W 21:20:56 27° NNW 21:22:49 10° NE
STARLINK-1420 4.2 21:19:07 10° W 21:20:57 27° NNW 21:22:49 10° NE
STARLINK-1440 4.2 21:19:07 10° W 21:20:57 27° NNW 21:22:49 10° NE
STARLINK-1436 (VISORSAT) 4.2 21:19:07 10° W 21:20:58 27° NNW 21:22:51 10° NE
STARLINK-1460 4.2 21:19:10 10° W 21:21:00 27° NNW 21:22:52 10° NE
STARLINK-1421 4.2 21:19:16 10° W 21:21:04 26° NNW 21:22:56 10° NE
STARLINK-1423 4.2 21:19:16 10° W 21:21:04 26° NNW 21:22:56 10° NE
STARLINK-1400 4.2 21:19:15 10° W 21:21:04 27° NNW 21:22:57 10° NE
STARLINK-1410 4.2 21:19:14 10° W 21:21:04 27° NNW 21:22:56 10° NE
Cosmos 1470 2.7 21:17:12 10° N 21:21:05 76° E 21:23:07 26° SSE
STARLINK-1454 4.2 21:19:16 10° W 21:21:06 27° NNW 21:22:57 10° NE
STARLINK-1458 4.2 21:19:18 10° W 21:21:08 27° NNW 21:22:59 10° NE
STARLINK-1445 4.2 21:19:20 10° W 21:21:10 27° NNW 21:23:02 10° NE
STARLINK-1446 4.2 21:19:22 10° W 21:21:12 27° NNW 21:23:05 10° NE
STARLINK-1407 4.2 21:19:22 10° W 21:21:12 27° NNW 21:23:05 10° NE
STARLINK-1405 4.2 21:19:27 10° W 21:21:14 26° NNW 21:23:03 10° NE
STARLINK-1370 4.2 21:19:25 10° W 21:21:16 27° NNW 21:23:07 10° NE
STARLINK-1456 4.2 21:19:26 10° W 21:21:16 26° NNW 21:23:07 10° NE
STARLINK-1457 4.2 21:19:26 10° W 21:21:16 26° NNW 21:23:07 10° NE
STARLINK-1451 4.2 21:19:26 10° W 21:21:16 26° NNW 21:23:07 10° NE
STARLINK-1409 4.2 21:19:27 10° W 21:21:17 26° NNW 21:23:08 10° NE
STARLINK-1439 4.2 21:19:30 10° W 21:21:17 26° NNW 21:23:06 10° NE
STARLINK-1437 4.2 21:19:27 10° W 21:21:17 27° NNW 21:23:09 10° NE
STARLINK-1447 4.2 21:19:27 10° W 21:21:17 27° NNW 21:23:09 10° NE
STARLINK-1455 4.2 21:19:27 10° W 21:21:17 27° NNW 21:23:09 10° NE
STARLINK-1441 4.2 21:19:29 10° W 21:21:19 27° NNW 21:23:11 10° NE
STARLINK-1443 4.2 21:19:31 10° W 21:21:22 27° NNW 21:23:14 10° NE
STARLINK-1351 4.2 21:19:34 10° W 21:21:24 27° NNW 21:23:16 10° NE
STARLINK-1418 4.2 21:19:34 10° W 21:21:24 27° NNW 21:23:16 10° NE
STARLINK-1442 4.2 21:19:34 10° W 21:21:25 27° NNW 21:23:17 10° NE
STARLINK-1403 4.2 21:19:34 10° W 21:21:25 27° NNW 21:23:17 10° NE
STARLINK-1434 4.2 21:19:34 10° W 21:21:25 27° NNW 21:23:17 10° NE
STARLINK-1448 4.2 21:19:36 10° W 21:21:26 27° NNW 21:23:18 10° NE
STARLINK-1433 4.2 21:19:38 10° W 21:21:28 27° NNW 21:23:20 10° NE
STARLINK-1449 4.2 21:19:39 10° W 21:21:29 27° NNW 21:23:21 10° NE
STARLINK-1438 4.2 21:19:42 10° W 21:21:32 26° NNW 21:23:23 10° NE
STARLINK-1411 4.3 21:19:49 10° W 21:21:38 26° NNW 21:23:31 10° NE
STARLINK-1412 4.2 21:19:49 10° W 21:21:39 27° NNW 21:23:31 10° NE
OE (NEXTSAT) 4.2 21:18:50 10° W 21:22:21 82° S 21:25:22 13° E
BREEZE-M DEB (TANK) 3.9 21:05:23 10° WSW 21:22:27 86° NNW 21:26:35 10° ENE
Meteor 2-10 4.4 21:17:57 10° N 21:22:50 48° ENE 21:25:45 23° SE
STARLINK-1271 3.9 21:19:30 10° WNW 21:23:38 67° NNE 21:26:37 18° ESE
STARLINK-1375 3.7 21:20:29 10° SW 21:24:18 45° SE 21:28:08 10° ENE
Cosmos 1733 4.5 21:21:27 10° NNW 21:24:56 35° W 21:27:50 13° SSW
BREEZE-M DEB (TANK) 3.7 21:16:43 10° SSW 21:25:10 32° SSE 21:28:37 10° E
FALCON 9 DEB 3.1 21:21:54 10° WSW 21:25:19 86° NW 21:28:46 10° ENE
NOSS 3-2 (C) 4.4 21:19:55 10° NW 21:27:21 58° WSW 21:33:29 19° SSE
SeaSat 1 4.3 21:25:09 10° ENE 21:27:30 13° ESE 21:27:48 13° ESE
BREEZE-M DEB (TANK) 3.4 21:23:30 10° WNW 21:27:36 60° N 21:31:15 10° E
Cosmos 1174 3.3 21:26:28 21° SSW 21:28:26 66° ESE 21:32:11 10° NE
STARLINK-1350 3.7 21:24:44 10° SW 21:28:35 49° SE 21:32:28 10° ENE
STARLINK-1154 3.8 21:24:27 10° WNW 21:28:35 71° NNE 21:31:22 20° ESE
STARLINK-1235 4.0 21:25:57 10° WNW 21:29:09 35° SW 21:30:07 29° S
COSMOS 2455 2.9 21:24:03 10° SSW 21:29:57 62° ESE 21:35:55 10° NE
Cosmos 1340 Rocket 3.6 21:26:33 10° N 21:30:25 39° ENE 21:32:10 26° SE
ATLAS 3B CENTAUR R/B 4.4 21:19:42 10° WSW 21:31:13 25° SSW 21:35:20 19° S
SL-27 R/B 4.3 21:28:31 10° NW 21:31:24 23° W 21:33:33 14° SSW
Cosmos 1842 4.2 21:28:39 10° SSW 21:32:23 45° WNW 21:36:08 10° N
STARLINK-1352 3.6 21:29:02 10° SW 21:32:55 52° SE 21:36:49 10° ENE
Cosmos 1025 Rocket 3.0 21:30:38 25° S 21:32:59 65° E 21:37:17 10° NNE
STARLINK-1197 3.7 21:29:26 10° WNW 21:33:35 76° NNE 21:36:10 22° ESE
COSMOS 2487 2.5 21:31:33 10° NNW 21:35:01 64° ENE 21:36:14 36° SE
Cosmos 1975 Rocket 4.2 21:31:37 10° SSW 21:35:47 41° WNW 21:39:57 10° N
NOSS 3-4 (A) 3.4 21:30:27 10° SW 21:36:23 88° WNW 21:42:47 10° NE
NOSS 3-4 (C) 3.4 21:30:33 10° SW 21:36:30 89° NW 21:42:54 10° NE
STARLINK-1368 3.5 21:33:25 10° SW 21:37:21 56° SE 21:41:18 10° ENE
STARLINK-1212 3.8 21:34:34 10° WNW 21:37:25 32° SW 21:37:48 31° SSW
STARLINK-1105 3.9 21:35:14 10° WNW 21:38:07 32° SW 21:38:31 31° SSW
STARLINK-1198 3.6 21:34:24 10° WNW 21:38:34 80° NNE 21:40:57 25° ESE
STARLINK-1247 3.9 21:36:20 10° WNW 21:39:14 31° SW 21:39:38 30° SSW
STARLINK-1227 3.9 21:36:58 10° WNW 21:39:51 31° SW 21:40:12 30° SSW
Cosmos 1354 Rocket 4.0 21:35:14 10° NNW 21:40:34 80° WSW 21:43:37 26° SSE
STARLINK-1226 3.9 21:38:09 10° WNW 21:40:59 30° SW 21:41:19 30° SSW
STARLINK-1369 3.5 21:37:47 10° SW 21:41:45 61° SE 21:45:43 10° ENE
Aureole 3 4.1 21:39:18 10° NNE 21:41:49 24° ENE 21:42:17 23° E
STARLINK-1215 4.0 21:39:13 10° WNW 21:42:05 30° SW 21:42:23 29° SSW
MTI 3.6 21:39:29 10° NNE 21:42:39 83° ESE 21:43:39 40° S
STARLINK-1199 3.6 21:39:23 10° WNW 21:43:33 85° NNE 21:45:43 27° ESE
ATLAS 5 CENTAUR R/B 1.8 21:37:45 10° SSW 21:43:37 51° SE 21:46:04 10° ENE
RESURS DK-1 2.9 21:42:39 32° SE 21:43:39 38° ESE 21:47:30 10° NE
EXPRESS MD2 4.5 21:40:30 10° WNW 21:44:14 61° N 21:51:49 10° E
STARLINK-1217 4.1 21:41:32 10° WNW 21:44:21 29° SW 21:44:35 28° SSW
Cosmos 1943 Rocket 4.0 21:40:25 10° WSW 21:45:22 32° NW 21:50:25 10° NNE
Cosmos 1271 Rocket 3.0 21:42:55 21° SSW 21:45:26 66° WNW 21:49:25 10° N
STARLINK-1229 4.1 21:42:39 10° WNW 21:45:28 28° SW 21:45:38 28° SW
Cosmos 1953 2.4 21:41:54 10° N 21:45:52 63° E 21:47:21 35° SSE
STARLINK-1372 3.4 21:42:08 10° SW 21:46:06 65° SE 21:50:05 10° ENE
Cosmos 2297 Rocket 4.0 21:41:54 10° N 21:46:26 24° NE 21:50:57 10° E
STARLINK-1270 4.1 21:43:44 10° WNW 21:46:31 27° SW 21:46:39 27° SW
Cosmos 1992 Rocket 4.2 21:42:23 10° SSW 21:47:34 70° WNW 21:52:47 10° NNE
STARLINK-1210 3.5 21:44:21 10° WNW 21:48:31 90° WSW 21:50:30 30° ESE
STARLINK-1189 4.2 21:46:11 10° W 21:48:57 26° SW 21:49:02 26° SW
Lacrosse 4 Rocket 4.2 21:48:20 10° N 21:50:05 12° NE 21:51:48 10° ENE
STARLINK-1188 4.3 21:47:25 10° W 21:50:10 26° SW 21:50:12 26° SW
STARLINK-1378 3.4 21:46:33 10° SW 21:50:32 70° SSE 21:54:32 10° ENE
Cosmos 2228 4.2 21:48:45 10° N 21:52:31 30° ENE 21:54:03 24° ESE
STARLINK-1191 4.4 21:50:04 10° W 21:52:41 24° SW 21:52:41 24° SW
Cosmos 921 Rocket 4.5 21:52:46 21° ESE 21:53:17 21° E 21:56:35 10° NE
STARLINK-1219 3.5 21:49:22 10° WNW 21:53:31 84° SW 21:55:19 33° SE
STARLINK-1221 4.4 21:51:17 10° W 21:53:50 24° SW 21:53:50 24° SW
SL-4 R/B 3.2 21:49:31 10° W 21:54:13 53° NNW 21:58:59 10° ENE
STARLINK-1379 3.4 21:50:59 10° SW 21:55:00 75° SSE 21:59:02 10° ENE
STARLINK-1222 4.5 21:52:33 10° W 21:55:02 23° SW 21:55:02 23° SW
Cosmos 1242 Rocket 4.2 21:52:26 11° SW 21:55:35 32° WNW 21:58:55 10° N
Cosmos 1707 3.0 21:55:20 27° SSW 21:57:21 67° WNW 22:01:13 10° N
STARLINK-1211 3.5 21:54:21 10° WNW 21:58:30 79° SW 22:00:05 36° SE
STARLINK-1329 3.4 21:54:42 10° SW 21:58:44 79° SSE 22:02:47 10° ENE
ERS-1 Rocket 4.4 21:59:08 14° SSW 22:02:39 30° W 22:07:04 10° NW
STARLINK-1362 3.4 21:59:12 10° SW 22:03:14 84° SSE 22:07:18 10° ENE
STARLINK-1245 3.5 21:59:19 10° WNW 22:03:27 73° SW 22:04:51 40° SE
Cosmos 1656 Rocket 4.3 21:58:44 10° SW 22:04:14 56° WNW 22:09:43 10° NNE
EO 1 Del DPAF 3.6 22:00:38 10° NNE 22:04:17 45° E 22:04:56 40° SE
ATLAS 2AS CENTAUR R/B 3.4 21:56:39 10° SW 22:04:36 67° NW 22:12:31 10° NE
Cosmos 1758 4.4 22:01:00 10° NNW 22:04:49 40° W 22:06:46 24° SW
Meteor 2-15 4.5 22:00:08 10° N 22:06:17 70° E 22:09:27 30° SSE
Timation 2 Rocket 4.1 22:00:04 10° NNW 22:06:21 69° ENE 22:09:46 27° SE
STARLINK-1373 3.4 22:03:43 10° WSW 22:07:46 89° SSE 22:11:50 10° ENE
STARLINK-1233 3.6 22:04:18 10° WNW 22:08:26 68° SW 22:09:38 43° SSE
STARLINK-1143 4.5 22:06:34 10° WNW 22:10:36 48° NNE 22:14:04 13° E
STARLINK-1390 3.5 22:08:15 10° WSW 22:12:18 86° NW 22:16:22 10° ENE
Cosmos 1726 Rocket 4.3 22:08:42 10° N 22:12:49 40° ENE 22:14:12 31° ESE
ATLAS CENTAUR R/B 2.8 22:08:45 10° WSW 22:12:49 39° NW 22:16:41 10° NNE
Meteor 1-16 Rocket 4.0 22:07:43 10° NNW 22:13:12 87° W 22:15:41 33° S
STARLINK-1204 3.6 22:09:17 10° WNW 22:13:24 63° SW 22:14:24 46° SSE
BREEZE-M R/B 4.3 22:03:21 10° SW 22:13:46 55° SSE 22:18:36 10° ENE
STARLINK-1320 3.4 22:11:46 10° WSW 22:14:50 59° NNW 22:17:56 10° NE
STARLINK-1322 3.4 22:12:07 10° WSW 22:15:12 58° NNW 22:18:17 10° NE
STARLINK-1324 3.4 22:12:26 10° WSW 22:15:31 58° NNW 22:18:37 10° NE
STARLINK-1241 4.4 22:11:34 10° WNW 22:15:37 51° NNE 22:18:51 15° E
STARLINK-1294 3.4 22:12:45 10° WSW 22:15:50 58° NNW 22:18:55 10° NE
STARLINK-1261 3.4 22:13:08 10° WSW 22:16:13 58° NNW 22:19:18 10° NE
STARLINK-1325 3.5 22:13:28 10° WSW 22:16:33 57° NNW 22:19:39 10° NE
STARLINK-1333 3.5 22:13:51 10° WSW 22:16:56 57° NNW 22:20:01 10° NE
STARLINK-1334 3.5 22:14:08 10° WSW 22:17:12 57° NNW 22:20:18 10° NE
STARLINK-1326 3.5 22:14:28 10° WSW 22:17:32 56° NNW 22:20:37 10° NE
STARLINK-1323 3.5 22:14:50 10° WSW 22:17:54 56° NNW 22:21:00 10° NE
STARLINK-1365 3.6 22:14:03 10° WSW 22:18:08 80° NNW 22:22:14 10° ENE
STARLINK-1349 3.5 22:15:08 10° WSW 22:18:12 56° NNW 22:21:18 10° NE
STARLINK-1238 3.7 22:14:17 10° WNW 22:18:22 58° SW 22:19:12 47° SSE
STARLINK-1336 3.5 22:15:28 10° WSW 22:18:33 55° NNW 22:21:38 10° NE
S3M 4.2 22:12:25 10° NNW 22:18:33 63° W 22:22:10 26° SSW
STARLINK-1331 3.5 22:15:51 10° WSW 22:18:55 55° NNW 22:22:00 10° NE
STARLINK-1344 3.5 22:16:09 10° WSW 22:19:14 55° NNW 22:22:19 10° NE
STARLINK-1343 3.6 22:16:32 10° WSW 22:19:36 55° NNW 22:22:41 10° NE
STARLINK-1346 3.6 22:16:49 10° WSW 22:19:54 55° NNW 22:23:00 10° NE
SJ 16-02 3.4 22:16:41 10° N 22:19:58 20° NE 22:22:33 13° E
STARLINK-1328 3.6 22:17:15 10° WSW 22:20:20 54° NNW 22:23:23 10° NE
STARLINK-1354 3.6 22:17:33 10° WSW 22:20:37 54° NNW 22:23:41 10° NE
STARLINK-1239 4.3 22:16:33 10° WNW 22:20:38 53° NNE 22:23:39 17° E
STARLINK-1347 3.6 22:17:51 10° WSW 22:20:55 54° NNW 22:23:58 10° NE
Cosmos 2369 Rocket 4.3 22:16:35 10° WSW 22:21:14 26° NW 22:25:55 10° N
STARLINK-1357 3.6 22:18:16 10° WSW 22:21:20 53° NNW 22:24:24 10° NE
STARLINK-1335 3.6 22:18:33 10° WSW 22:21:37 53° NNW 22:24:42 10° NE
STARLINK-1327 3.6 22:18:55 10° WSW 22:21:58 53° NNW 22:25:02 10° NE
STARLINK-1340 3.6 22:19:13 10° WSW 22:22:16 52° NNW 22:25:20 10° NE
STARLINK-1356 3.7 22:19:36 10° WSW 22:22:39 52° NNW 22:25:44 10° NE
STARLINK-1345 3.7 22:19:54 10° WSW 22:22:58 52° NNW 22:26:01 10° NE
STARLINK-1355 3.7 22:20:16 10° WSW 22:23:19 52° NNW 22:26:24 10° NE
STARLINK-1201 3.8 22:19:17 10° WNW 22:23:20 54° SW 22:23:59 48° S
Cosmos 2315 Rocket 4.0 22:17:15 10° N 22:23:28 74° E 22:26:32 32° SSE
STARLINK-1321 3.7 22:20:36 10° WSW 22:23:40 51° NNW 22:26:44 10° NE
BREEZE-M DEB (TANK) 4.3 22:19:39 10° WSW 22:23:45 85° NNW 22:39:45 10° ENE
STARLINK-1358 3.7 22:21:00 10° WSW 22:24:03 51° NNW 22:27:06 10° NE
STARLINK-1332 3.7 22:21:17 10° WSW 22:24:20 51° NNW 22:27:24 10° NE
Cosmos 2227 Rocket 3.4 22:19:20 10° NNW 22:24:34 36° NE 22:28:23 17° ESE
STARLINK-1348 3.7 22:21:37 10° WSW 22:24:40 51° NNW 22:27:44 10° NE
STARLINK-1330 3.7 22:21:58 10° W 22:25:00 50° NNW 22:28:04 10° NE
STARLINK-1363 3.7 22:22:17 10° W 22:25:21 50° NNW 22:28:23 10° NE
STARLINK-1240 4.2 22:21:29 10° WNW 22:25:35 56° NNE 22:28:23 19° E
STARLINK-1337 3.7 22:22:40 10° W 22:25:43 50° NNW 22:28:46 10° NE
STARLINK-1342 3.8 22:23:00 10° W 22:26:02 50° NNW 22:29:05 10° NE
STARLINK-1364 3.8 22:23:20 10° W 22:26:23 49° NNW 22:29:26 10° NE
STARLINK-1376 3.8 22:23:40 10° W 22:26:42 49° NNW 22:29:46 10° NE
STARLINK-1360 3.8 22:24:01 10° W 22:27:03 49° NNW 22:30:07 10° NE
STARLINK-1361 3.8 22:24:22 10° W 22:27:24 49° NNW 22:30:27 10° NE
STARLINK-1367 3.8 22:24:38 10° W 22:27:41 49° NNW 22:30:46 10° NE
STARLINK-1366 3.8 22:25:01 10° W 22:28:03 48° NNW 22:31:07 10° NE
STARLINK-1206 3.8 22:24:15 10° WNW 22:28:16 50° SW 22:28:44 47° SSW
Meteor 2-15 Rocket 4.4 22:22:29 10° N 22:28:41 82° E 22:31:36 33° SSE
STARLINK-1338 3.8 22:24:59 10° WSW 22:28:57 69° NNW 22:32:56 10° ENE
STARLINK-1216 4.1 22:26:29 10° WNW 22:30:36 59° NNE 22:33:11 21° E
STARLINK-1205 3.9 22:29:15 10° WNW 22:33:14 46° SW 22:33:31 45° SSW
STARLINK-1237 4.0 22:31:28 10° WNW 22:35:35 62° NNE 22:37:58 24° E
Cosmos 1908 3.1 22:32:04 10° N 22:35:53 82° W 22:36:36 57° S
SL-14 R/B 4.1 22:36:22 33° ESE 22:36:41 34° E 22:40:11 10° NNE
Cosmos 2084 4.0 22:32:51 13° SW 22:36:42 62° NW 22:41:09 10° NE
STARLINK-1371 3.9 22:33:25 10° WSW 22:37:21 62° NNW 22:41:19 10° ENE
Cosmos 1777 Rocket 4.1 22:32:41 10° NNW 22:37:55 69° WSW 22:39:51 38° S
STARLINK-1218 4.1 22:34:16 10° WNW 22:38:12 42° SW 22:38:19 42° SW
STARLINK-1202 3.9 22:36:27 10° WNW 22:40:35 66° NNE 22:42:45 26° E
STARLINK-1341 4.0 22:37:46 10° WSW 22:41:43 60° NNW 22:45:41 10° ENE
KORONAS-FOTON 3.8 22:42:06 52° SSW 22:42:57 75° W 22:46:51 10° N
STARLINK-1254 4.2 22:39:17 10° WNW 22:43:06 39° SW 22:43:06 39° SW
Terra 3.8 22:41:36 13° SW 22:44:07 19° W 22:47:28 10° NW
STARLINK-1203 3.8 22:41:14 10° WNW 22:45:23 69° NNE 22:47:23 29° ESE
STARLINK-1374 4.1 22:42:04 10° WSW 22:46:01 57° NNW 22:49:58 10° ENE
Thor Agena Rocket 3.8 22:41:37 10° N 22:46:52 66° WNW 22:49:41 27° SW
STARLINK-1231 4.4 22:44:18 10° WNW 22:47:53 36° SW 22:47:53 36° SW
Cosmos 1726 3.7 22:45:09 10° NW 22:48:16 25° W 22:49:12 22° WSW
Meteor 2-5 Rocket 3.7 22:46:11 37° S 22:48:27 77° E 22:54:08 10° NNE
Cosmos 1300 3.3 22:44:54 10° N 22:48:35 43° ENE 22:49:12 40° ESE
STARLINK-1339 4.2 22:46:24 10° W 22:50:20 54° NNW 22:54:16 10° ENE
STARLINK-1246 3.7 22:46:24 10° WNW 22:50:34 74° NNE 22:52:19 33° ESE
USA 215 3.9 22:44:46 10° E 22:51:07 54° NNE 22:57:27 10° NW
Cosmos 2266 Rocket 4.4 22:47:46 23° SW 22:51:29 54° WNW 22:57:25 10° N
Cosmos 2292 Rocket 4.1 22:51:50 29° WSW 22:52:27 31° WNW 22:55:12 10° NNW
Cosmos 1674 3.3 22:53:26 38° WSW 22:54:22 49° WNW 22:58:05 10° N
STARLINK-1377 4.3 22:50:46 10° W 22:54:41 52° NNW 22:58:37 10° ENE
STARLINK-1224 3.6 22:51:22 10° WNW 22:55:32 78° NNE 22:57:05 37° ESE
STARLINK-1353 4.4 22:55:07 10° W 22:59:01 50° NNW 23:02:55 10° ENE
STARLINK-1225 3.6 22:56:22 10° WNW 23:00:31 83° NNE 23:01:52 42° ESE
ATLAS 3B R/B 3.6 22:56:51 10° NW 23:02:50 33° WSW 23:05:21 26° SSW
STARLINK-1375 4.5 22:59:30 10° W 23:03:23 48° NNW 23:07:17 10° NE
FALCON 9 R/B 4.5 23:08:51 16° SE 23:08:51 16° SE 23:11:41 10° ESE
STARLINK-1230 3.5 23:01:19 10° WNW 23:05:30 88° NE 23:06:38 47° ESE
SeaSat 1 2.4 23:00:40 10° NNE 23:05:38 88° ESE 23:07:34 38° SSW
Cosmos 1606 Rocket 4.2 23:03:14 10° NNW 23:07:22 43° W 23:08:26 36° SW
Meteor 2-21 4.4 23:04:49 36° S 23:07:33 87° E 23:13:48 10° N
BREEZE M DEB (TANK) 3.8 23:05:41 10° WNW 23:06:46 22° NW 23:06:46 22° NW
Cosmos 2058 Rocket 3.0 23:04:21 10° N 23:08:50 83° W 23:09:53 52° S
STARLINK-1243 3.5 23:06:20 10° WNW 23:10:30 86° SSW 23:11:26 52° SE
Cosmos 1980 Rocket 3.9 23:10:05 17° ESE 23:11:20 18° E 23:15:01 10° ENE
Helios 1B rocket 4.0 23:10:21 10° NE 23:13:36 22° E 23:14:04 22° ESE
Cosmos 1244 Rocket 4.4 23:12:34 36° S 23:15:18 86° W 23:21:30 10° N
Cosmos 468 Rocket 4.5 23:14:13 38° SE 23:15:23 44° ESE 23:20:15 10° NNE
STARLINK-1236 3.5 23:11:17 10° WNW 23:15:27 81° SSW 23:16:12 58° SE
ALOS 2 2.7 23:14:35 49° SSW 23:15:31 63° WSW 23:19:54 10° NNW
Cosmos 1745 Rocket 4.3 23:16:47 34° SSE 23:19:14 54° E 23:25:12 10° NNE
Cosmos 1626 2.2 23:20:51 59° WSW 23:21:16 65° W 23:24:58 10° N
Cosmos 2369 4.4 23:20:09 32° SE 23:21:34 37° ESE 23:26:44 10° NE
RESURS DK-1 4.4 23:18:29 11° WSW 23:21:47 25° NW 23:25:16 10° N
ERBS 2.7 23:18:31 10° NW 23:21:49 58° NE 23:22:16 52° ENE
Cosmos 1455 3.9 23:21:05 10° NNE 23:24:09 23° ENE 23:25:11 21° E
Cosmos 1937 Rocket 4.2 23:19:09 10° NNW 23:24:15 48° ENE 23:27:02 25° SE
STARLINK-1269 3.5 23:21:16 10° WNW 23:25:24 70° SW 23:25:46 65° S
STARLINK-43 3.5 23:26:08 56° E 23:26:08 56° E 23:29:16 10° ENE
Cosmos 1812 Rocket 4.3 23:21:28 10° N 23:25:45 44° ENE 23:27:04 34° ESE
Cosmos 2263 Rocket 4.5 23:22:16 10° N 23:26:17 20° NE 23:30:16 10° E
Meteor 1-24 Rocket 3.8 23:27:06 36° SSW 23:29:18 66° WNW 23:34:52 10° N
Lacrosse 4 Rocket 1.7 23:25:25 10° NNW 23:29:42 62° NE 23:31:03 39° ESE
Cosmos 2228 4.4 23:26:27 10° NNW 23:29:57 25° W 23:30:53 23° WSW
Cosmos 1656 3.6 23:27:54 40° SSW 23:30:02 81° ESE 23:35:39 10° NNE
STARLINK-1200 3.5 23:26:15 10° WNW 23:30:22 65° SW 23:30:33 64° SSW
Cosmos 2297 Rocket 2.2 23:25:24 10° NNW 23:31:02 70° WSW 23:32:59 41° S
Cosmos 921 Rocket 4.0 23:29:32 27° WSW 23:31:17 40° WNW 23:35:27 10° N
SL-4 R/B 3.8 23:33:28 11° NW 23:33:28 11° NW 23:33:37 10° NW
CZ-4C R/B 2.0 23:31:35 45° S 23:33:04 66° ESE 23:38:56 10° NE
Cosmos 1898 Rocket 3.6 23:27:45 10° NNW 23:33:06 76° ENE 23:35:13 37° SE
SL-08 R/B 4.5 23:31:05 37° S 23:33:52 88° W 23:40:15 10° N
SL-4 R/B 3.4 23:29:51 10° WNW 23:34:33 49° N 23:39:13 10° E
Cosmos 2219 3.4 23:29:24 10° NW 23:34:53 54° WSW 23:36:34 40° SSW
STARLINK-1192 3.6 23:31:15 10° WNW 23:35:20 60° SW 23:35:20 60° SW
Cosmos 1602 Rocket 3.7 23:35:23 48° SE 23:36:11 58° E 23:40:27 10° NNE
STARLINK-1244 3.7 23:36:13 10° WNW 23:40:06 55° SW 23:40:06 55° SW
Cosmos 1386 Rocket 4.5 23:39:47 37° S 23:42:20 75° E 23:48:36 10° NNE
Cosmos 990 Rocket 3.9 23:37:29 10° NNW 23:42:47 87° WSW 23:44:36 42° SSE
PSLV R/B 4.1 23:38:46 10° NNE 23:43:02 46° E 23:43:52 40° SE
ATLAS CENTAUR R/B 1.7 23:41:46 10° NW 23:43:35 53° WNW 23:43:35 53° WNW
STARLINK-1138 3.9 23:41:12 10° WNW 23:44:52 49° WSW 23:44:52 49° WSW
Cosmos 2082 3.7 23:39:52 10° NNW 23:45:33 81° ENE 23:48:10 33° SSE
Helios 1A 3.3 23:47:33 46° SW 23:48:09 50° W 23:52:14 10° NNW
STARLINK-1143 4.1 23:46:14 10° WNW 23:49:40 44° WSW 23:49:40 44° WSW
STARLINK-26 4.0 23:51:19 38° E 23:51:19 38° E 23:53:44 10° ENE
EO 1 Delta rocket 4.1 23:47:05 10° N 23:52:15 64° WNW 23:53:50 40° SW
Meteor 2-1 Rocket 4.1 23:47:50 10° NNW 23:53:25 89° W 23:55:37 39° S
STARLINK-1241 4.3 23:51:15 10° WNW 23:54:27 39° WSW 23:54:27 39° WSW
Cosmos 1437 4.3 23:55:39 24° WNW 23:55:39 24° WNW 23:58:12 10° NNW
